Showing default

ASBM-2, 60423

Orbit data source: Space-Track

ASBM-2, 60423 is a Norwegian payload satellite in HEO that was launched on Mon, 12 Aug 2024 UTC via an FALCON 9 launch vehicle from the Air Force Western Test Range (AFWTR). Payload-class satellites include a variety of spacecraft equipped with specific instruments for various scientific and technological missions. These include communications satellites like Starlink; space stations such as the ISS; scientific satellites like the Hubble; Earth observation satellites from companies like Planet Labs, Umbra, and HawkEye 360; GPS; miniature CubeSats for education and research; and military/defense satellites.

Loading next visibility...
Identifier
60423, 2024-143B
Orbit
HEO
Country
Flag of NONO / NOR
Related business
Manufacturer
NGIS SSG
Mission
Operational Commercial Communications
Bus & Motor
GEOSTAR-3, BT-4?
Mass
3,505 kg wet, 1,925 kg dry
Launch date (UTC)
2024-08-12 (2 years ago)
Launch vehicle
FALCON 9
Launch site
Air Force Western Test Range (AFWTR)
Object type
Payload
Rocket body
Debris
Shape & HBR
Box + 2 Pan, 13.5 m
Radar Cross Section
35.796 m², Large (>1 m²)

Expand to show TLE details & history
Last TLE update: 3 days ago

TLE from 3 days ago
0 ASBM-2
1 60423U 24143B   26251.26169309 -.00000040  00000-0  00000-0 0  9996
2 60423  62.9077  42.3116 5627340 269.4333  29.5032  1.50425200 12858
Epoch: 2026-09-08T06:16Z
TLE epoch observation values (Epoch: 2026-09-08T06:16:50.282Z)
Latitude
-0.00002°
Longitude
-39.28813°
Altitude
15,702.487 km
Speed
4.87 km/s
True Right ascension
02h 49m 00s
True Declination
0° 00' 00"
Sunlit
Object was in daylight at epoch
Visualization orbit readout
Latitude
Unknown
Longitude
Unknown
Altitude
Unknown
Speed
Unknown
Apparent Right ascension
Unknown
Apparent Declination
Unknown
Sunlit
N/A
Visualization observer readout
Local Sidereal Time
05:11:14
Azimuth
Unknown
Elevation
Unknown
Doppler factor
Unknown
Orbital elements
Apogee altitude
43,902.479 km
Perigee altitude
7,690.799 km
Semi-major axis
32,174.776 km
Eccentricity
0.56273
Inclination
62.9077°
RAAN
42.3116°
Arg. of periapsis
269.4333°
True anomaly
90.70495°
Mean anomaly
29.5032°
Eccentric anomaly
56.33968°
Mean motion
0.37607 °/min
Orbital period
957.27 mins
BSTAR
0
Loading maneuver chart data...
Computing Atmospheric mass density...
Loading historical data...
Loading historical data...
Loading historical data...
Loading historical data...
Loading historical data...
Loading historical data...
Loading historical data...
Other satellites on launch #143 in the year 2024 (2024-08-12 UTC)

Documentation

Showing up to 5 results
|